User: anonymous
Location: Ciudad Delicias
(28.2170°N, 105.4670°W)
Time: 06:43:46
(UTC-07:00)
Language:

ETS-7 - Orbit

View from above orbital plane
View from above orbital plane
View from above satellite
View from above satellite

Ground track
Ground track

The orbit data is extracted from the following two-line orbital elements,

1 25064U 97074B   14103.76472288  .00022214  00000-0  43166-3 0  1342
2 25064 034.9650 329.3022 0002810 189.1409 236.0715 15.46661249911188
Epoch (UTC): 13 April 2014 18:21:12
Eccentricity: 0.0002810
inclination: 34.9650°
perigee height: 424 km
apogee height: 428 km
right ascension of ascending node: 329.3022°
argument of perigee: 189.1409°
revolutions per day: 15.46661249
mean anomaly at epoch: 236.0715°
orbit number at epoch: 91118

The dashed part of the orbit path shows where the satellite is in the earth's shadow,  

DLR